Hourly Data Report for May 28, 2012

All times are specified in Local Standard Time (LST). Add 1 hour to adjust for Daylight Saving Time where and when it is observed.

THUNDER BAY
ONTARIO

48°22'19.000" N
89°19'18.000" W
199.30 m
6048260
71072
YQT

Download Data

Hourly Data (May 2012)
Hourly Data Report for May 28, 2012
Temp Definition
°C
Dew Point Temp Definition
°C
Rel Hum Definition
%
Wind Dir Definition
10's deg

Wind Spd Definition
km/h
Visibility Definition
km
Stn Press Definition
kPa
Hmdx Definition


Wind Chill Definition


Weather Definition


TIME
00:00 Legend Double Dagger 9.4 9.0 97 5 28 2.8 98.53     LegendNANA
01:00 Legend Double Dagger 9.6 9.2 97 LegendMM LegendMM 4.0 98.58     LegendNANA
02:00 Legend Double Dagger 9.4 8.9 96 9 33 11.3 98.45     LegendNANA
03:00 Legend Double Dagger 9.3 8.9 97 8 21 4.8 98.43     LegendNANA
04:00 Legend Double Dagger 9.5 8.9 96 7 18 16.1 98.30     LegendNANA
05:00 Legend Double Dagger 10.0 9.2 95 7 22 16.1 98.20     LegendNANA
06:00 Legend Double Dagger 10.0 9.2 95 8 22 16.1 98.15     LegendNANA
07:00 Legend Double Dagger 10.0 9.2 95 9 28 16.1 98.07     LegendNANA
08:00 Legend Double Dagger 10.0 9.2 95 9 28 16.1 98.06     LegendNANA
09:00 Legend Double Dagger 9.6 9.3 98 8 28 4.8 97.80     LegendNANA
10:00 Legend Double Dagger 9.6 9.2 97 9 18 11.3 97.88     LegendNANA
11:00 Legend Double Dagger 9.4 9.1 98 6 8 1.6 97.90     LegendNANA
12:00 Legend Double Dagger 9.8 9.5 98 LegendMM 4 1.6 97.90     LegendNANA
13:00 Legend Double Dagger 11.7 10.5 92 25 5 16.1 97.88     LegendNANA
14:00 Legend Double Dagger 14.2 11.9 86 18 8 16.1 97.87     LegendNANA
15:00 Legend Double Dagger 17.8 14.2 79 29 5 16.1 97.88     LegendNANA
16:00 Legend Double Dagger 21.2 13.0 59 27 17 16.1 97.81     LegendNANA
17:00 Legend Double Dagger 21.5 12.6 57 28 22 16.1 97.82     LegendNANA
18:00 Legend Double Dagger 19.7 14.1 70 11 13 16.1 97.78     LegendNANA
19:00 Legend Double Dagger 16.6 12.7 78 7 18 16.1 97.81     LegendNANA
20:00 Legend Double Dagger 11.7 9.8 88 5 15 16.1 97.87     LegendNANA
21:00 Legend Double Dagger 10.9 9.7 92 8 11 16.1 97.90     LegendNANA
22:00 Legend Double Dagger 10.5 9.6 94 3 15 11.3 97.95     LegendNANA
23:00                    

Notes on Data Quality.

Legend

  • E = Estimated
  • M = Missing
  • NA = Not Available
  • ‡ = Partner data that is not subject to review by the National Climate Archives
Date modified: